Weather History for Reading, PA

Change the Weather History Date:

Thursday, November 14, 2013

  Actual Average Record
Temperature  
Mean Temperature 41 °F 45 °F  
Max Temperature 55 °F 54 °F 74 °F (1955)
Min Temperature 26 °F 35 °F 16 °F (1986)
Degree Days  
Heating Degree Days 24 20  
Month to date heating degree days 272 254  
Since 1 July heating degree days 637 692  
Cooling Degree Days 0 0  
Month to date cooling degree days 0 0  
Year to date cooling degree days 1124 896  
Moisture  
Dew Point 16 °F    
Average Humidity 45    
Maximum Humidity 72    
Minimum Humidity 18    
Precipitation  
Precipitation 0.00 in 0.09 in 1.32 in (1972)
Month to date precipitation 0.38 1.50  
Year to date precipitation 35.60 38.02  
Sea Level Pressure  
Sea Level Pressure 30.27 in    
Wind  
Wind Speed 5 mph (SW)    
Max Wind Speed 16 mph    
Max Gust Speed 21 mph    
Visibility 10 miles    
Events      
T = Trace of Precipitation, MM = Missing Value Source: NWS Daily Summary

Daily Weather History Graph

Daily Weather History Graph

Search for Another Location

Airport:

Trip Planner

Search our weather history database for the weather conditions in past years. The results will help you decide how hot, cold, wet, or windy it might be!

Date:

Astronomy

Nov. 14, 2013 Rise Set
Actual Time 6:48 AM EST 4:47 PM EST
Civil Twilight 6:19 AM EST 5:16 PM EST
Nautical Twilight 5:46 AM EST 5:49 PM EST
Astronomical Twilight 5:14 AM EST 6:21 PM EST
Moon 3:07 PM EST (11/14) 3:41 AM EST (11/14)
Length of Visible Light 10h 56m
Length of Day
9h 58m
Waxing Gibbous, 91% of the Moon is Illuminated
Nov 14
Waxing Gibbous
Nov 17
Full
Nov 25
Last Quarter
Dec 2
New
Dec 9
First Quarter

Hourly Weather History & Observations

Time (EST) Temp. Windchill Dew Point Humidity Pressure Visibility Wind Dir Wind Speed Gust Speed Precip Events Conditions
12:54 AM 30.0 °F 25.2 °F 18.0 °F 61% 30.32 in 10.0 mi SSE 4.6 mph - N/A   Clear
1:54 AM 30.0 °F 26.5 °F 18.0 °F 61% 30.31 in 10.0 mi SSW 3.5 mph - N/A   Clear
2:54 AM 30.0 °F 22.4 °F 19.0 °F 64% 30.30 in 10.0 mi SSW 8.1 mph - N/A   Clear
3:54 AM 28.9 °F 21.9 °F 19.0 °F 67% 30.30 in 10.0 mi South 6.9 mph - N/A   Clear
4:54 AM 28.9 °F - 19.0 °F 67% 30.30 in 10.0 mi Calm Calm - N/A   Clear
5:54 AM 28.9 °F - 18.0 °F 64% 30.30 in 10.0 mi Calm Calm - N/A   Clear
6:54 AM 28.0 °F - 19.0 °F 69% 30.31 in 10.0 mi Calm Calm - N/A   Clear
7:54 AM 30.0 °F - 23.0 °F 75% 30.32 in 10.0 mi Calm Calm - N/A   Clear
8:54 AM 37.9 °F - 19.9 °F 48% 30.32 in 10.0 mi Calm Calm - N/A   Clear
9:54 AM 44.1 °F 37.4 °F 15.1 °F 31% 30.32 in 10.0 mi West 13.8 mph 18.4 mph N/A   Clear
10:54 AM 46.0 °F 41.0 °F 12.9 °F 26% 30.30 in 10.0 mi West 10.4 mph 19.6 mph N/A   Clear
11:54 AM 48.9 °F - 12.0 °F 23% 30.27 in 10.0 mi WSW 13.8 mph 19.6 mph N/A   Clear
12:54 PM 52.0 °F - 12.0 °F 20% 30.24 in 10.0 mi West 13.8 mph 19.6 mph N/A   Clear
1:54 PM 54.0 °F - 10.0 °F 17% 30.23 in 10.0 mi West 6.9 mph 16.1 mph N/A   Clear
2:54 PM 52.0 °F - 14.0 °F 22% 30.22 in 10.0 mi SW 9.2 mph - N/A   Clear
3:54 PM 52.0 °F - 14.0 °F 22% 30.22 in 10.0 mi SW 9.2 mph - N/A   Clear
4:54 PM 48.9 °F - 12.9 °F 24% 30.22 in 10.0 mi SW 4.6 mph - N/A   Clear
5:54 PM 48.0 °F - 12.9 °F 24% 30.23 in 10.0 mi SSE 3.5 mph - N/A   Clear
6:54 PM 46.0 °F - 12.9 °F 26% 30.24 in 10.0 mi Calm Calm - N/A   Clear
7:54 PM 44.1 °F - 14.0 °F 30% 30.24 in 10.0 mi Calm Calm - N/A   Clear
8:54 PM 41.0 °F - 15.1 °F 35% 30.24 in 10.0 mi Calm Calm - N/A   Clear
9:54 PM 43.0 °F - 14.0 °F 31% 30.23 in 10.0 mi Calm Calm - N/A   Clear
10:54 PM 36.0 °F - 16.0 °F 44% 30.23 in 10.0 mi Calm Calm - N/A   Clear
11:54 PM 33.1 °F - 18.0 °F 54% 30.23 in 10.0 mi Calm Calm - N/A   Clear